Dewpoint
28 22 20 20 22 26 27 26 25 25 27 27 26 24 24 25 25 24 24 23 26 40 43 51 56 57 58 58 58 58 57 57 58 59 59 57 58 59 60 61 62 60 59 57
28 26 26 25 24 26 27 26 25 27 28 28 24 24 24 25 25 25 23 23 23 40 48 54 55 57 57 58 58 57 57 57 58 58 58 58 58 59 60 60 60 62 60 58
26 28 33 29 28 28 28 26 27 27 30 29 27 25 24 24 25 25 21 22 29 42 47 53 54 56 57 56 56 57 56 57 57 57 57 57 58 58 58 59 59 60 61 59
31 33 34 31 30 31 29 28 28 32 31 26 26 23 25 25 25 24 22 25 31 44 47 51 53 55 56 56 57 57 57 57 57 57 56 56 55 56 56 58 59 59 60 60
31 35 36 34 32 32 31 33 35 34 33 31 29 26 25 25 24 25 23 22 27 40 47 48 52 54 56 56 56 57 56 56 56 56 56 56 55 55 56 57 58 58 58 59
33 38 36 35 35 35 33 37 37 34 32 30 28 25 24 24 24 23 24 25 24 33 45 47 51 54 56 56 56 56 55 55 56 56 55 55 54 55 54 56 56 57 58 57
31 34 35 37 33 36 35 35 28 27 28 26 26 25 24 26 27 27 27 25 26 33 44 47 50 54 55 55 55 55 55 54 55 56 55 54 54 54 54 56 56 56 56 57
22 15 34 36 33 33 34 34 29 23 24 23 27 24 24 26 26 30 31 26 26 27 43 46 49 53 55 55 55 55 55 54 55 56 55 54 54 55 54 55 55 56 56 56
18 19 31 35 33 34 36 33 34 34 33 28 27 29 29 33 33 33 37 32 28 35 43 46 49 53 55 55 55 55 54 54 54 54 55 55 54 54 53 54 54 55 55 55
21 19 24 31 34 35 36 36 32 34 25 24 26 27 32 37 38 36 38 40 40 44 46 47 49 53 55 55 55 55 54 54 54 54 54 54 54 54 53 53 53 54 54 54
29 23 23 33 33 33 36 36 36 34 33 29 27 33 39 42 44 39 40 44 47 43 46 47 48 52 55 55 55 54 54 54 53 53 54 54 54 55 54 53 52 53 54 54
31 31 28 27 30 33 36 35 37 32 30 31 33 31 42 44 45 40 42 46 47 49 48 49 51 52 53 53 55 54 54 54 53 54 54 53 55 55 55 54 53 52 53 54
30 29 24 24 30 32 34 35 36 36 36 33 29 31 43 43 44 44 42 45 45 45 46 47 49 49 51 53 54 55 55 55 55 55 54 54 54 54 54 54 55 54 53 52
33 28 26 21 28 33 32 33 36 36 33 33 33 36 40 41 42 44 42 43 43 43 43 43 43 45 47 50 51 51 52 54 56 56 55 54 54 54 54 54 54 54 55 54
30 23 31 31 31 30 30 29 31 34 36 34 32 33 37 42 43 44 45 42 40 39 41 41 41 41 42 45 45 46 48 47 49 55 55 54 54 54 54 54 54 54 54 55
33 27 29 27 29 30 25 26 28 29 34 36 37 34 41 45 46 46 45 42 38 37 37 36 37 37 37 38 40 41 41 42 44 44 44 44 46 50 55 54 54 55 55 55
29 28 26 22 26 26 24 29 24 28 35 34 33 36 43 45 45 45 43 40 37 35 34 34 34 34 35 36 37 36 36 38 39 39 40 40 42 43 44 45 49 54 55 55
30 29 28 23 25 16 22 16 32 31 33 36 37 40 43 40 39 40 42 39 36 33 33 32 32 32 33 34 35 34 33 33 34 34 34 36 37 39 40 42 43 43 45 48
31 28 24 20 21 18 16 29 34 35 37 41 40 42 38 37 36 36 38 36 34 33 32 31 31 31 31 33 34 32 31 30 30 30 31 32 34 35 36 37 38 39 42 41
30 29 24 25 19 15 24 25 34 33 33 40 43 41 38 39 34 34 35 33 31 30 29 29 29 29 30 31 33 30 29 28 28 28 28 30 30 31 32 34 35 36 36 33
25 26 24 22 20 22 25 25 33 26 35 42 44 41 42 37 37 35 33 30 29 29 28 28 28 28 29 30 31 29 28 27 27 27 27 28 28 29 30 31 32 33 32 31
26 25 22 23 22 19 35 38 29 34 42 40 40 37 34 33 31 29 28 27 27 26 26 27 27 27 28 30 29 28 28 27 26 26 26 26 27 27 28 29 30 30 30 29
20 29 28 26 24 36 36 37 38 40 39 38 38 37 34 32 30 29 26 25 25 25 25 26 26 27 27 28 29 28 27 27 26 25 24 25 26 26 26 27 27 27 27 28
33 35 33 34 34 35 35 34 33 35 38 38 38 36 34 30 27 25 24 24 24 24 24 25 25 25 25 27 27 29 28 27 26 24 24 24 25 25 25 25 26 25 25 25
33 32 31 32 36 34 34 34 35 34 31 29 28 28 26 25 24 24 23 23 22 22 22 23 23 23 24 24 24 26 27 25 24 24 23 23 24 24 24 25 25 25 27 26
33 31 28 31 37 35 33 34 34 33 30 27 25 24 24 23 23 23 22 21 20 20 20 20 20 20 23 23 23 23 25 26 24 23 22 22 22 21 21 21 22 24 24 24
Lifted_Index
7 6 6 7 8 8 8 7 6 6 4 3 3 4 4 3 3 3 3 2 2 2 1 -1 -1 -1 -1 -1 -1 -0 1 1 1 2 2 2 2 2 1 1 2 2 2 2
6 6 6 7 7 8 7 7 6 5 4 3 3 4 4 3 3 3 2 2 2 2 1 -0 -1 -1 -1 -1 -1 -0 1 1 1 2 2 2 2 2 1 1 1 2 2 2
5 5 6 6 6 6 7 6 6 5 3 3 3 3 3 3 3 2 2 2 1 1 1 -0 -2 -2 -2 -1 -1 -0 1 1 1 2 2 2 3 2 2 1 1 1 2 2
5 5 5 5 5 5 6 6 5 4 3 3 3 3 3 3 2 2 2 2 2 1 1 -0 -2 -2 -2 -2 -1 -1 0 1 2 2 2 2 3 3 2 2 1 2 2 2
5 5 5 5 5 5 5 5 5 4 3 2 2 2 3 2 2 1 1 2 2 2 1 -0 -2 -3 -3 -2 -2 -1 0 1 2 2 2 2 3 3 2 2 2 2 2 2
4 4 4 5 5 4 5 4 4 3 2 2 2 2 3 2 1 1 1 1 2 2 1 0 -2 -3 -3 -3 -2 -1 -0 1 2 2 2 2 2 2 2 2 2 2 2 2
4 4 4 4 4 4 4 4 3 1 1 1 2 3 3 2 1 1 1 1 1 2 1 1 -1 -2 -3 -3 -2 -1 -0 1 1 2 2 2 2 2 2 3 3 2 2 2
3 3 4 4 4 4 4 4 2 1 1 1 2 2 2 2 1 1 1 1 1 1 1 1 -0 -2 -3 -3 -2 -1 -1 0 1 2 2 2 2 2 2 3 3 3 2 2
3 3 4 4 4 4 4 3 3 1 1 1 1 1 1 1 1 2 2 1 1 1 1 1 -0 -1 -2 -3 -2 -1 -1 0 1 2 2 2 2 2 2 2 3 3 2 2
2 3 3 3 3 3 3 3 2 2 1 0 0 0 1 1 1 2 2 1 1 1 0 0 -0 -1 -2 -2 -2 -1 -1 0 1 1 2 2 2 2 2 2 2 2 2 2
2 2 2 3 3 3 3 2 2 1 1 0 -0 0 1 1 1 1 1 1 1 0 0 0 -0 -1 -2 -2 -1 -1 -1 -0 1 1 2 2 2 2 2 2 2 2 2 2
2 2 2 2 2 2 2 2 1 1 1 0 0 0 1 1 1 1 1 0 0 0 0 -0 -1 -1 -2 -1 -1 -1 -1 -0 1 1 2 2 2 2 2 2 2 2 2 2
2 2 2 2 2 2 2 1 1 1 1 1 1 1 1 1 1 1 0 0 -0 -0 -0 -1 -1 -1 -1 -1 -1 -1 -1 -0 0 1 1 2 2 2 2 2 2 2 2 2
3 2 2 2 2 2 2 1 1 1 1 1 1 1 2 2 2 1 1 1 -0 -0 -1 -1 -1 -1 -1 -1 -1 -1 -1 -1 -0 -0 -0 0 0 1 1 1 1 1 1 1
2 2 2 2 2 2 2 2 1 1 1 1 1 2 2 2 2 2 2 2 1 1 0 -0 -1 -1 -1 -1 -1 -1 -0 -0 -1 -1 -1 -1 -1 -1 -0 -0 -0 0 0 1
2 2 2 2 3 3 3 3 2 2 1 1 1 2 2 2 2 2 3 3 3 2 2 2 1 1 0 0 0 0 0 0 0 0 0 -0 -0 -0 -1 -1 -1 -1 -0 -0
1 2 2 3 3 3 3 3 2 2 1 1 1 1 1 1 1 2 3 3 4 4 4 4 4 3 3 3 3 2 2 2 2 1 1 1 1 1 0 -0 -1 -1 -1 -1
1 2 3 3 3 3 3 2 2 1 1 1 1 1 1 1 2 2 3 4 5 5 5 5 5 5 5 5 5 5 4 4 4 3 3 3 3 2 1 1 0 -0 -0 -0
2 2 3 3 3 3 3 2 2 1 1 1 1 1 1 1 2 2 4 5 5 6 6 6 7 7 7 7 7 6 6 6 6 6 6 6 5 4 3 3 2 1 1 0
2 2 3 3 3 3 3 3 3 2 1 1 1 1 1 1 1 2 4 5 6 6 6 7 8 8 8 8 8 7 7 7 7 7 7 7 7 6 6 5 4 3 2 2
2 2 3 4 4 4 4 4 3 2 1 1 1 1 1 1 2 2 4 5 6 7 7 8 8 8 8 8 8 8 7 7 7 7 7 7 7 7 6 6 6 5 4 4
2 2 3 3 4 4 4 3 3 2 1 1 1 1 1 2 2 3 3 5 6 7 7 8 8 8 8 8 8 7 7 8 8 7 7 7 7 7 6 6 6 6 5 5
1 2 2 2 3 3 3 3 2 1 1 1 1 2 2 2 3 3 4 5 6 7 7 7 7 7 8 8 8 8 8 9 9 9 8 8 8 7 7 7 6 6 6 6
1 1 1 2 2 3 3 2 2 2 1 2 2 3 3 3 4 4 5 6 6 7 7 7 7 7 8 9 10 10 10 11 10 10 9 9 9 9 9 9 8 8 8 8
1 1 1 1 2 2 2 2 2 2 2 3 4 4 4 5 5 6 6 6 6 7 7 8 8 8 9 11 12 12 13 12 11 11 10 10 11 11 11 10 11 11 12 12
1 1 1 1 2 1 1 1 2 3 3 4 5 5 5 6 6 6 6 6 6 7 8 8 9 10 11 12 13 13 14 13 12 11 11 11 12 12 12 12 12 13 14 14